Weather in Oktyabrskoye

Russia / Lipetsk Oblast     52°18′14″N   39°43′13″E
temp.,
°C
wind,
m/s
gust,
m/s
humid.,
%
clouds,
%
prec.,
mm/h
press.,
hPa
HPBL,
m
16 january, sun
sun1600:00−4nw81491100 0.4 1001823
03:00−6nw71489100 0.4 1004614
06:00−6nw7148997 0.1 1005539
09:00−6nw6139097 0.1 1008503
12:00−4nw6119095 0.1 1010763
15:00−4nw599297 0.1 1011548
18:00−10w359870 0.0 101363
21:00−7w3694100 0.0 1013232
17 january, mon
mon1700:00−6wsw489526 0.0 1012242
03:00−12sw489873 0.0 1012109
06:00−10sw5139672 0.0 1009252
09:00−8ssw7169399 0.0 1006381
12:00−5ssw81789100 0.0 1002633
15:00−3ssw91795100 0.6 999837
18:00−2ssw91695100 1.0 996898
21:00−2ssw81694100 2.1 995792
18 january, tue
tue1800:00−1ssw71596100 0.3 994814
03:000ssw61297100 0.6 993723
06:00−1ssw61197100 0.9 993670
09:00−2ssw51097100 1.8 994566
12:00−3wnw4596100 0.6 997331
15:00−3wnw3493100 0.6 999347
18:00−5wnw3597100 0.5 1002199
21:00−6w2497100 1.2 1004139
19 january, wed
wed1900:00−10sw229865 0.3 100615
03:00−14sw2210099 0.3 100813
06:00−15n1199100 0.1 101123
09:00−10n3996100 0.3 1013229
12:00−8nne469299 0.2 1014395
15:00−8n359497 0.4 1016356
18:00−12n359773 0.1 101786
21:00−15n339885 0.2 101953
20 january, thu
thu2000:00−19ne2210094 0.1 102012
03:00−21ene11100100 0.1 10219
06:00−23sse11100100 0.0 10219
09:00−23ssw11100100 0.1 102211
12:00−14s359791 0.0 1022136
15:00−12s249654 0.1 1021127
18:00−17sse369852 0.0 102276
21:00−17s499842 0.0 1022122